Home   Weather   Preston   Past weeks

Flag for United Kingdom Past Weather in Preston, England, United Kingdom — Yesterday and Last 2 Weeks

Now
50 °F

Partly sunny.


Feels Like: 45 °F
Forecast: 41 / 57 °F
Wind: 13 mph from West

Location: Blackpool Airport

Current Time: Apr 28, 2017 at 5:34:06 pm

Latest Report: Apr 28, 2017 at 4:50 pm


Visibility: N/A

Pressure: 30.01 "Hg

Humidity: 82%

Dew Point: 45 °F

Location of PrestonLocation

Past Weather in Preston — Graph

°F

Preston Temperature Yesterday

Maximum temperature yesterday: 52 °F (at 1:50 pm)
Minimum temperature yesterday: 46 °F (at 8:50 am)
Average temperature yesterday: 50 °F

High & Low Weather Summary for the Past Weeks

 TemperatureHumidityPressure
High54 °F (Apr 20, 10:50 am)100% (Apr 14, 7:20 am)30.60 "Hg (Apr 14, 7:20 am)
Low36 °F (Apr 25, 6:20 am)46% (Apr 24, 4:50 pm)29.89 "Hg (Apr 14, 4:20 pm)
Average49 °F75%30.23 "Hg
* Reported Apr 13 4:20 pm — Apr 28 4:20 pm, Preston, Weather by CustomWeather, © 2017

Note: Actual official high and low records may vary slightly from our data, if they occured in-between our weather recording intervals... More about our weather records

Advertising

Preston Weather History for the Previous 24 Hours

Scroll right to see more
 ConditionsComfort  
Time TempWeatherWind HumidityBarometerVisibility
4:20 pm
Fri, Apr 28
52 °FPassing clouds.12 mph77%30.01 "HgN/A
3:50 pm52 °FPassing clouds.9 mph62%30.01 "HgN/A
3:20 pm52 °FPartly sunny.10 mph72%30.01 "HgN/A
2:50 pm52 °FPartly sunny.12 mph77%30.01 "HgN/A
2:20 pm52 °FPartly sunny.10 mph77%30.01 "HgN/A
1:50 pm52 °FPartly sunny.9 mph72%30.04 "HgN/A
1:20 pm52 °FPartly sunny.9 mph67%30.04 "HgN/A
12:50 pm52 °FPartly sunny.10 mph67%30.04 "HgN/A
11:20 am50 °FPassing clouds.7 mph76%30.04 "HgN/A
10:50 am50 °FPartly sunny.8 mph67%30.04 "HgN/A
10:20 am50 °FPartly sunny.No wind67%30.04 "HgN/A
9:50 am50 °FScattered clouds.3 mph67%30.04 "HgN/A
9:20 am48 °FPassing clouds.3 mph71%30.04 "HgN/A
8:50 am46 °FBroken clouds.5 mph76%30.07 "HgN/A
7:50 am46 °FLight rain. Broken clouds.3 mph87%30.04 "HgN/A
7:20 am45 °FScattered clouds.6 mph93%30.04 "HgN/A
8:50 pm
Thu, Apr 27
50 °FClear.15 mph82%30.04 "Hg10 mi
8:20 pm50 °FSunny.15 mph82%30.04 "Hg10 mi
7:50 pm50 °FSunny.14 mph82%30.01 "Hg10 mi
7:20 pm50 °FSunny.14 mph82%30.04 "Hg10 mi
6:50 pm50 °FSunny.14 mph82%30.01 "Hg10 mi
6:20 pm50 °FSunny.15 mph82%30.01 "Hg10 mi
5:50 pm52 °FScattered clouds.16 mph77%30.01 "HgN/A
5:20 pm50 °FPassing clouds.17 mph82%30.04 "HgN/A
Weather by CustomWeather, © 2017

See weather overviewHow to use our weather pages